This is the latest recevied weather packets stored in our database for station/object AA4XD. If no packets are shown the sender has not sent any weather packets the latest 10 day(s).
| Time | Temp. | Humidity | Pressure | Rain* | Wind** | Luminosity | Snow |
|---|---|---|---|---|---|---|---|
| 1777904438 | 25.56° C | 44% | 1017.3 hPa | 0 mm | - | 646 W/m² | - |
| 1777904135 | 25° C | 43% | 1017.1 hPa | 0 mm | - | 631 W/m² | - |
| 1777903832 | 24.44° C | 46% | 1017.1 hPa | 0 mm | - | 613 W/m² | - |
| 1777903528 | 25° C | 46% | 1017.2 hPa | 0 mm | - | 591 W/m² | - |
| 1777903225 | 25° C | 47% | 1017.4 hPa | 0 mm | - | 565 W/m² | - |
| 1777902921 | 25° C | 48% | 1017 hPa | 0 mm | - | 539 W/m² | - |
| 1777902618 | 24.44° C | 50% | 1017.1 hPa | 0 mm | - | 515 W/m² | - |
| 1777902315 | 23.89° C | 54% | 1017.3 hPa | 0 mm | - | 496 W/m² | - |
| 1777902012 | 23.89° C | 57% | 1017.1 hPa | 0 mm | - | 478 W/m² | - |
| 1777901711 | 23.33° C | 59% | 1016.9 hPa | 0 mm | - | 455 W/m² | - |
| 1777901408 | 23.33° C | 59% | 1017.1 hPa | 0 mm | - | 427 W/m² | - |
| 1777901105 | 23.89° C | 59% | 1017.2 hPa | 0 mm | - | 398 W/m² | - |
| 1777900803 | 22.78° C | 61% | 1017.2 hPa | 0 mm | - | 358 W/m² | - |
| 1777900500 | 22.78° C | 60% | 1017.1 hPa | 0 mm | - | 331 W/m² | - |
| 1777900196 | 22.78° C | 62% | 1017.1 hPa | 0 mm | - | 315 W/m² | - |
| 1777899893 | 22.78° C | 63% | 1016.8 hPa | 0 mm | - | 306 W/m² | - |
| 1777899589 | 22.22° C | 66% | 1017 hPa | 0 mm | - | 283 W/m² | - |
| 1777899287 | 21.67° C | 65% | 1016.9 hPa | 0 mm | - | 287 W/m² | - |
| 1777898985 | 21.11° C | 67% | 1016.9 hPa | 0 mm | - | 278 W/m² | - |
| 1777898682 | 20.56° C | 69% | 1016.9 hPa | 0 mm | - | 255 W/m² | - |
| 1777898378 | 20.56° C | 69% | 1016.8 hPa | 0 mm | - | 213 W/m² | - |
| 1777898077 | 20.56° C | 71% | 1017.1 hPa | 0 mm | - | 183 W/m² | - |
| 1777897772 | 19.44° C | 73% | 1017.1 hPa | 0 mm | - | 169 W/m² | - |
| 1777897469 | 19.44° C | 72% | 1017.4 hPa | 0 mm | - | 160 W/m² | - |
| 1777897165 | 19.44° C | 72% | 1017 hPa | 0 mm | - | 149 W/m² | - |
* Rain latest hour (hover to see other rain measurements)
** Current wind speed in m/s (hover to see current wind gust speed)